Regional Weather Roundup
Issued by NWS Sterling, VA

Home | Current Version | Previous Version | Text Only | Print | Product List | Glossary Off
Versions: 1 2 3 4 5 6 7 8 9 10 11 12 13 14 15 16 17 18 19 20 21 22 23 24 25 26 27

000
ASUS41 KLWX 251110
RWRLWX

REGIONAL WEATHER ROUNDUP
NATIONAL WEATHER SERVICE BALTIMORE MD/WASHINGTON DC
700 AM EDT SAT MAR 25 2017

Note: "FAIR" indicates few or no clouds below 12,000 feet
with no significant weather and/or obstructions to visibility.
 TC=TEMPERATURE CELSIUS

 * =Non NWS site. Station does not report precipitation (e.g. rain,
    snow, etc.), thunder, or fog.

DCZ001-MDZ009-015-VAZ040>042-051-053>054-251200-
WASHINGTON METRO

CITY           SKY/WX    TMP DP  RH WIND       PRES   REMARKS
WASHINGTON NAT CLOUDY    55  48  77 S8        30.18R
DULLES         CLOUDY    56  46  69 S6        30.17R
ANDREWS AFB    CLOUDY    58  47  64 SW9       30.16R
FT BELVOIR     CLOUDY    51  45  79 CALM      30.18R
QUANTICO       CLOUDY    54  48  80 S7        30.19R
COLLEGE PARK*  CLOUDY    48  43  81 CALM      30.17R
LEESBURG*      PTCLDY    54  50  87 SW5       30.18R
MANASSAS*      MOCLDY    52  46  80 S3        30.18R

$$

MDZ006>007-011-014-251200-
BALTIMORE METRO

CITY           SKY/WX    TMP DP  RH WIND       PRES   REMARKS
BWI AIRPORT    CLOUDY    58  48  69 SW6       30.16R
MD SCIENCE CTR   N/A     56  45  66 MISG      30.17R
MARTIN STATE   MOCLDY    46  45  93 CALM      30.18R
ANNAPOLIS      CLOUDY    61  47  59 CALM      30.17R
FORT MEADE*    CLOUDY    52  45  76 CALM      30.19R

$$

MDZ012-015-019>023-251200-
MARYLAND EASTERN SHORE

CITY           SKY/WX    TMP DP  RH WIND       PRES   REMARKS
OCEAN CITY     PTCLDY    55  47  74 SW7       30.21R
SALISBURY      PTCLDY    56  48  74 SW10      30.20R
BAY BRIDGE AP* CLOUDY    54  46  76 S3        30.17R
CAMBRIDGE*     CLEAR     55  48  76 S5        30.20R
EASTON*        CLOUDY    55  46  71 S6        30.22R

$$

MDZ017>025-251200-
SOUTHERN MARYLAND

CITY           SKY/WX    TMP DP  RH WIND       PRES   REMARKS
PATUXENT RIVER CLOUDY    58  50  75 SW15      30.18S
ST INIGOES     MOCLDY    53  46  77 S6        30.21R
LEONARDTOWN*   CLOUDY    57  46  67 SW12      30.21R

$$

MDZ003>005-251200-
NORTH CENTRAL MARYLAND

CITY           SKY/WX    TMP DP  RH WIND       PRES   REMARKS
FREDERICK*     CLEAR     52  52 100 CALM      30.18R
HAGERSTOWN APT CLOUDY    56  46  69 S9        30.14R
WESTMINSTER*   CLOUDY    57  48  72 SW6       30.15R

$$

MDZ501>502-251200-
WESTERN MARYLAND

CITY           SKY/WX    TMP DP  RH WIND       PRES   REMARKS
OAKLAND*       CLOUDY    54  45  71 W10G18    30.20S
CUMBERLAND*    CLOUDY    59  46  63 CALM      30.18S

$$

VAZ025>031-251200-
SHENANDOAH VALLEY

CITY           SKY/WX    TMP DP  RH WIND       PRES   REMARKS
WINCHESTER*    CLOUDY    59  45  58 SW9       30.17R
FRONT ROYAL*     N/A    N/A N/A N/A MISG        N/A
LURAY*         MOCLDY    59  50  72 SW6       30.19R
NEW MARKET*    CLOUDY    57  46  66 W6        30.19R
STAUNTON*      MOCLDY    55  46  71 S5        30.23S
WAYNESBORO*    CLOUDY    58  48  69 W6        30.22S

$$

WVZ021-048>050-054>055-251200-
EASTERN WEST VIRGINIA PANHANDLE

CITY           SKY/WX    TMP DP  RH WIND       PRES   REMARKS
MARTINSBURG    CLOUDY    58  46  64 S7        30.15R
PETERSBURG*    CLOUDY    61  49  64 E5        30.17S

$$

VAZ036>039-050-251200-
CENTRAL FOOTHILLS

CITY           SKY/WX    TMP DP  RH WIND       PRES   REMARKS
CHARLOTTESVILL CLOUDY    56  47  71 S10       30.18F
CULPEPER*      MOCLDY    55  48  78 CALM      30.19R
ORANGE*        CLOUDY    55  45  67 S10       30.21R
GORDONSVILLE*  CLOUDY    56  48  72 SW3       30.19S
WARRENTON*     CLOUDY    58  45  60 SW3       30.18R

$$

VAZ055>057-251200-
NORTH AND CENTRAL PIEDMONT

CITY           SKY/WX    TMP DP  RH WIND       PRES   REMARKS
FREDERICKSBRG* CLOUDY    60  49  67 SW12      30.19R
STAFFORD*      CLOUDY    59  48  67 SW3       30.23R

$$

NCZ024-NYZ072-PAZ021-071-VAZ022-071-251200-
OTHER REGIONAL OBSERVATIONS

CITY           SKY/WX    TMP DP  RH WIND       PRES   REMARKS
NEW YORK CITY  MOCLDY    53  38  56 VRB6      30.14R
PHILADELPHIA   CLOUDY    53  44  71 SW10      30.14R
PITTSBURGH     CLOUDY    63  51  65 SW7       30.13R
ROANOKE        CLOUDY    55  45  68 CALM      30.27S
RICHMOND       MOCLDY    56  49  77 SW10      30.24R
RALEIGH        MOCLDY    54  49  83 SW3       30.32R

$$

ANZ530>537-251200-
MARINE OBSERVATIONS

STATION/POSITION TIME  TEMP    WIND        PRES
                       AIR SEA DIR/SP/G
                 (UTC) (F)     (DEG/KT/KT) (MB)
THOMAS PT LIGHT  1100   58 44  230/ 10/ 11   N/A
BALT KEY BRIDGE  1048   58     210/  1/  2 1021.3R
COVE POINT       1048   60     260/ 19/ 24 1022.4R
LEWISETTA        1042   59 48  250/ 13/ 16 1022.4R
SOLOMONS ISLAND  1042   57 45  230/ 13/ 18   N/A
PINEY POINT      1048          270/  8/  9   N/A

$$





USA.gov is the U.S. government's official web portal to all federal, state and local government web resources and services.